Regional Weather Roundup
Issued by NWS

Home | Current Version | Previous Version | Text Only | Print | Product List | Glossary Off
Versions: 1 2 3 4 5 6 7 8 9 10 11 12 13 14 15 16 17 18 19 20 21 22 23 24 25 26 27 28 29 30 31 32 33 34 35 36 37 38 39 40 41 42 43 44 45 46 47 48 49 50

000
ASUS45 KCYS 302210
RWRWY

WYOMING REGIONAL WEATHER ROUNDUP
NATIONAL WEATHER SERVICE CHEYENNE WY
300 PM MST FRI JAN 30 2015

NOTE:  "FAIR" INDICATES FEW OR NO CLOUDS BELOW 12,000 FEET
WITH NO SIGNIFICANT WEATHER AND/OR OBSTRUCTIONS TO VISIBILITY.

WYZ001-302300-
YELLOWSTONE NATIONAL PARK

CITY           SKY/WX    TMP DP  RH WIND       PRES   REMARKS
LK YELLOWSTONE   N/A     18  11  74 CALM      30.16F
W YELLOWSTONE  NOT AVBL

$$
WYZ002>013-054>058-071-098>099-302300-
NORTHERN WYOMING

CITY           SKY/WX    TMP DP  RH WIND       PRES   REMARKS
JACKSON        SUNNY     21  16  79 CALM      30.14F
CODY           FAIR      43  25  49 NE5       30.15S
GREYBULL       FOG       29  27  92 W3        30.19F VSB 1/4
WORLAND        FAIR      31  26  82 CALM      30.17F
SHERIDAN       FAIR      48  18  30 NE6       30.16F
BUFFALO        FAIR      45  16  31 N10       30.17F
GILLETTE       FAIR      45  24  43 N9        30.15F
HULETT           N/A    N/A N/A N/A MISG        N/A
NEWCASTLE      FAIR      50  16  25 NW13      30.11F

$$
WYZ014>020-022>026-101>103-302300-
CENTRAL WYOMING

CITY           SKY/WX    TMP DP  RH WIND       PRES   REMARKS
BIG PINEY      PTSUNNY   35  20  54 E6        30.12F WCI  30
PINEDALE       FAIR      30  18  59 NW5       30.13S WCI  25
DUBOIS         FAIR      36   7  30 E13G18    30.10S WCI  27
LANDER         CLOUDY    36  26  67 CALM      30.13F
RIVERTON       FAIR      38  28  67 CALM      30.14F
CASPER         FAIR      42  19  39 N14       30.13F
DOUGLAS        FAIR      45  19  35 N13       30.13F

$$
WYZ021-027>030-104>119-302300-
SOUTHERN WYOMING

CITY           SKY/WX    TMP DP  RH WIND       PRES   REMARKS
EVANSTON       CLOUDY    34  27  75 N7        30.07F WCI  28
KEMMERER       CLOUDY    34  25  69 NE12      30.10S WCI  25
FORT BRIDGER   FAIR      36  30  80 NE7       30.11F WCI  30
ROCK SPRINGS   CLOUDY    37  31  78 NE7       30.09S WCI  32
DIXON          FAIR      40  33  75 NW3       30.09S
RAWLINS        PTSUNNY   39  32  76 N9        30.10S WCI  33
SARATOGA       FAIR      37  32  81 N9        30.09F WCI  31
LARAMIE        FAIR      37  29  72 N6        30.09F WCI  32
CHEYENNE       FAIR      43  23  45 NE13      30.09S
TORRINGTON     FAIR      47  27  45 W3        30.09F
PINE BLUFFS    FAIR      45  25  45 NE13      30.09S

$$



USA.gov is the U.S. government's official web portal to all federal, state and local government web resources and services.